Overview Statistics Trail Chart Weather Telemetry Raw packets
 

This is the latest recevied weather packets stored in our database for station/object KF6RAL-6. If no packets are shown the sender has not sent any weather packets the latest 10 day(s).

<< 62 63 64 65 66 67 68 >>
Time Temp. Humidity Pressure Rain* Wind** Luminosity Snow
1788013041 19.44° C 80% 1017.7 hPa 0.76 mm - - -
1788012619 20° C 79% 1017.8 hPa 0.51 mm - - -
1788012198 20° C 77% 1017.7 hPa 0 mm - - -
1788011777 20.56° C 77% 1017.6 hPa 0 mm - - -
1788011355 20° C 76% 1017.4 hPa 0 mm - - -
1788010937 20° C 75% 1016.7 hPa 0 mm - - -
1788010514 20° C 74% 1016.8 hPa 0 mm - - -
1788010093 20° C 73% 1016.4 hPa 0 mm - - -
1788009672 19.44° C 77% 1015.3 hPa 0 mm - - -
1788009252 18.89° C 78% 1015.2 hPa 0 mm - - -
1788008930 18.89° C 77% 1015.1 hPa 0 mm - - -
1788008830 18.89° C 77% 1015.1 hPa 0 mm - - -
1788008409 18.89° C 78% 1015.1 hPa 0 mm - - -
1788007988 18.89° C 80% 1015 hPa 0.25 mm - - -
1788007566 18.33° C 81% 1015.4 hPa 1.02 mm - - -
1788007147 18.33° C 81% 1015.5 hPa 1.27 mm - - -
1788006725 18.33° C 81% 1015.2 hPa 1.27 mm - - -
1788006303 18.89° C 81% 1015.4 hPa 1.27 mm - - -
1788005882 18.89° C 80% 1015.8 hPa 1.27 mm - - -
1788005461 18.89° C 80% 1016 hPa 1.27 mm - - -
1788005040 18.89° C 80% 1016.1 hPa 1.27 mm - - -
1788004619 19.44° C 79% 1016.5 hPa 1.52 mm - - -
1788004198 19.44° C 78% 1017.7 hPa 1.27 mm - - -
1788003778 19.44° C 79% 1017.6 hPa 0.25 mm - - -
1788003356 19.44° C 78% 1016.9 hPa 0.25 mm - - -

* Rain latest hour (hover to see other rain measurements)
** Current wind speed in m/s (hover to see current wind gust speed)